Time,TemperatureF,DewpointF,PressureIn,WindDirection,WindDirectionDegrees,WindSpeedMPH,WindSpeedGustMPH,Humidity,HourlyPrecipIn,Conditions,Clouds,dailyrainin,SoftwareType,DateUTC
2013-03-25 00:00:00,35.2,19.8,29.73,NE,45,0.0,0.7,53,0.00,,,0.00,pywws,2013-03-25 04:00:00,
2013-03-25 00:01:00,35.2,19.8,29.73,NE,45,0.0,0.7,53,0.00,,,0.00,pywws,2013-03-25 04:01:00,
2013-03-25 00:02:00,35.2,19.8,29.74,NE,45,0.0,0.7,53,0.00,,,0.00,pywws,2013-03-25 04:02:00,
2013-03-25 00:03:00,35.2,19.8,29.73,NE,45,0.0,0.7,53,0.00,,,0.00,pywws,2013-03-25 04:03:00,
2013-03-25 00:09:00,35.2,19.8,29.73,South,180,0.0,0.7,53,0.00,,,0.00,pywws,2013-03-25 04:09:00,
2013-03-25 00:14:00,35.2,19.8,29.73,West,270,0.0,0.0,53,0.00,,,0.00,pywws,2013-03-25 04:14:00,
2013-03-25 00:20:00,35.2,19.8,29.73,East,90,0.0,0.0,53,0.00,,,0.00,pywws,2013-03-25 04:20:00,
2013-03-25 00:26:00,35.2,19.8,29.72,East,90,0.0,0.0,53,0.00,,,0.00,pywws,2013-03-25 04:26:00,
2013-03-25 00:31:00,35.2,19.8,29.72,NE,45,0.0,0.0,53,0.00,,,0.00,pywws,2013-03-25 04:31:00,
2013-03-25 00:36:00,35.1,19.7,29.72,West,270,0.0,0.0,53,0.00,,,0.00,pywws,2013-03-25 04:36:00,
2013-03-25 00:42:00,34.9,19.9,29.72,SW,225,0.0,0.0,54,0.00,,,0.00,pywws,2013-03-25 04:42:00,
2013-03-25 00:47:00,34.9,19.9,29.72,SW,225,0.0,0.0,54,0.00,,,0.00,pywws,2013-03-25 04:47:00,
2013-03-25 00:53:00,34.9,19.9,29.72,West,270,0.7,1.6,54,0.00,,,0.00,pywws,2013-03-25 04:53:00,
2013-03-25 00:58:00,34.9,19.9,29.71,West,270,0.0,0.0,54,0.00,,,0.00,pywws,2013-03-25 04:58:00,
2013-03-25 01:04:00,34.7,19.8,29.71,NNE,22,0.0,0.0,54,0.00,,,0.00,pywws,2013-03-25 05:04:00,
2013-03-25 01:10:00,34.9,19.9,29.71,South,180,0.0,0.0,54,0.00,,,0.00,pywws,2013-03-25 05:10:00,
2013-03-25 01:15:00,34.9,19.9,29.71,West,270,0.0,0.0,54,0.00,,,0.00,pywws,2013-03-25 05:15:00,
2013-03-25 01:21:00,34.9,19.9,29.71,North,0,0.0,0.0,54,0.00,,,0.00,pywws,2013-03-25 05:21:00,
2013-03-25 01:26:00,34.9,19.9,29.71,East,90,0.0,0.0,54,0.00,,,0.00,pywws,2013-03-25 05:26:00,
2013-03-25 01:32:00,34.9,19.9,29.71,West,270,0.0,0.0,54,0.00,,,0.00,pywws,2013-03-25 05:32:00,
2013-03-25 01:37:00,34.9,19.9,29.71,SW,225,0.0,0.7,54,0.00,,,0.00,pywws,2013-03-25 05:37:00,
2013-03-25 01:42:00,34.9,19.9,29.71,SW,225,0.0,0.0,54,0.00,,,0.00,pywws,2013-03-25 05:42:00,
2013-03-25 01:48:00,34.7,19.8,29.71,NE,45,0.0,0.0,54,0.00,,,0.00,pywws,2013-03-25 05:48:00,
2013-03-25 01:54:00,34.5,19.6,29.71,NE,45,0.0,0.0,54,0.00,,,0.00,pywws,2013-03-25 05:54:00,
2013-03-25 01:59:00,34.5,19.6,29.71,NE,45,0.0,0.0,54,0.00,,,0.00,pywws,2013-03-25 05:59:00,
2013-03-25 02:05:00,34.5,19.6,29.71,NE,45,0.0,0.0,54,0.00,,,0.00,pywws,2013-03-25 06:05:00,
2013-03-25 02:10:00,34.5,19.6,29.71,NE,45,0.0,0.0,54,0.00,,,0.00,pywws,2013-03-25 06:10:00,
2013-03-25 02:16:00,34.3,19.9,29.70,North,0,0.0,0.0,55,0.00,,,0.00,pywws,2013-03-25 06:16:00,
2013-03-25 02:21:00,34.3,19.9,29.70,East,90,0.0,2.2,55,0.00,,,0.00,pywws,2013-03-25 06:21:00,
2013-03-25 02:26:00,34.3,19.9,29.70,West,270,0.0,1.6,55,0.00,,,0.00,pywws,2013-03-25 06:26:00,
2013-03-25 02:32:00,34.5,20.0,29.70,North,0,0.0,0.7,55,0.00,,,0.00,pywws,2013-03-25 06:32:00,
2013-03-25 02:38:00,34.5,20.5,29.70,NE,45,0.0,0.0,56,0.00,,,0.00,pywws,2013-03-25 06:38:00,
2013-03-25 02:43:00,34.3,20.3,29.70,NE,45,0.0,0.0,56,0.00,,,0.00,pywws,2013-03-25 06:43:00,
2013-03-25 02:49:00,34.3,20.3,29.70,East,90,0.0,0.0,56,0.00,,,0.00,pywws,2013-03-25 06:49:00,
2013-03-25 02:54:00,34.2,20.5,29.70,East,90,0.0,0.0,57,0.00,,,0.00,pywws,2013-03-25 06:54:00,
2013-03-25 03:00:00,34.2,20.9,29.69,East,90,0.0,0.0,58,0.00,,,0.00,pywws,2013-03-25 07:00:00,
2013-03-25 03:06:00,34.2,20.9,29.69,NE,45,0.0,0.0,58,0.00,,,0.00,pywws,2013-03-25 07:06:00,
2013-03-25 03:11:00,33.6,21.2,29.69,NE,45,0.0,0.0,60,0.00,,,0.00,pywws,2013-03-25 07:11:00,
2013-03-25 03:17:00,33.6,21.6,29.68,NE,45,0.7,1.6,61,0.00,,,0.00,pywws,2013-03-25 07:17:00,
2013-03-25 03:22:00,33.6,21.6,29.68,East,90,0.0,0.7,61,0.00,,,0.00,pywws,2013-03-25 07:22:00,
2013-03-25 03:28:00,33.8,21.8,29.67,East,90,0.7,1.6,61,0.00,,,0.00,pywws,2013-03-25 07:28:00,
2013-03-25 03:34:00,33.8,21.4,29.67,East,90,0.0,0.0,60,0.00,,,0.00,pywws,2013-03-25 07:34:00,
2013-03-25 03:39:00,33.8,21.4,29.67,East,90,0.0,0.7,60,0.00,,,0.00,pywws,2013-03-25 07:39:00,
2013-03-25 03:45:00,33.8,21.4,29.67,East,90,0.0,0.0,60,0.00,,,0.00,pywws,2013-03-25 07:45:00,
2013-03-25 03:50:00,33.8,21.8,29.66,East,90,0.0,0.0,61,0.00,,,0.00,pywws,2013-03-25 07:50:00,
2013-03-25 03:56:00,33.8,21.8,29.67,East,90,0.0,0.0,61,0.00,,,0.00,pywws,2013-03-25 07:56:00,
2013-03-25 04:02:00,33.8,21.8,29.66,NE,45,0.0,0.0,61,0.00,,,0.00,pywws,2013-03-25 08:02:00,
2013-03-25 04:08:00,33.6,22.0,29.65,NE,45,0.0,0.0,62,0.00,,,0.00,pywws,2013-03-25 08:08:00,
2013-03-25 04:14:00,33.6,22.0,29.66,NE,45,0.0,0.0,62,0.00,,,0.00,pywws,2013-03-25 08:14:00,
2013-03-25 04:20:00,33.6,22.4,29.66,NE,45,0.0,0.0,63,0.00,,,0.00,pywws,2013-03-25 08:20:00,
2013-03-25 04:26:00,33.6,22.4,29.65,NE,45,0.0,0.0,63,0.00,,,0.00,pywws,2013-03-25 08:26:00,
2013-03-25 04:31:00,33.6,22.4,29.65,North,0,0.0,0.0,63,0.00,,,0.00,pywws,2013-03-25 08:31:00,
2013-03-25 04:37:00,33.6,22.4,29.65,NE,45,0.0,0.0,63,0.00,,,0.00,pywws,2013-03-25 08:37:00,
2013-03-25 04:42:00,33.4,22.2,29.65,NE,45,0.0,0.0,63,0.00,,,0.00,pywws,2013-03-25 08:42:00,
2013-03-25 04:48:00,33.4,22.2,29.64,NE,45,0.0,0.0,63,0.00,,,0.00,pywws,2013-03-25 08:48:00,
2013-03-25 04:54:00,33.4,22.2,29.64,West,270,0.0,1.6,63,0.00,,,0.00,pywws,2013-03-25 08:54:00,
2013-03-25 04:59:00,33.4,22.2,29.64,North,0,0.0,0.0,63,0.00,,,0.00,pywws,2013-03-25 08:59:00,
2013-03-25 05:05:00,33.3,22.0,29.64,NE,45,0.0,0.0,63,0.00,,,0.00,pywws,2013-03-25 09:05:00,
2013-03-25 05:10:00,33.3,22.0,29.64,NE,45,0.0,0.0,63,0.00,,,0.00,pywws,2013-03-25 09:10:00,
2013-03-25 05:16:00,32.9,21.7,29.64,NE,45,0.0,0.0,63,0.00,,,0.00,pywws,2013-03-25 09:16:00,
2013-03-25 05:22:00,32.7,21.5,29.64,East,90,0.0,0.0,63,0.00,,,0.00,pywws,2013-03-25 09:22:00,
2013-03-25 05:27:00,32.7,21.9,29.64,NE,45,0.0,0.0,64,0.00,,,0.00,pywws,2013-03-25 09:27:00,
2013-03-25 05:33:00,32.7,21.9,29.64,NW,315,0.0,0.0,64,0.00,,,0.00,pywws,2013-03-25 09:33:00,
2013-03-25 05:38:00,32.7,21.9,29.64,NE,45,0.0,0.0,64,0.00,,,0.00,pywws,2013-03-25 09:38:00,
2013-03-25 05:44:00,32.7,22.3,29.63,NE,45,0.0,0.0,65,0.00,,,0.00,pywws,2013-03-25 09:44:00,
2013-03-25 05:50:00,32.7,22.3,29.64,NW,315,0.0,0.0,65,0.00,,,0.00,pywws,2013-03-25 09:50:00,
2013-03-25 05:56:00,32.9,22.4,29.64,North,0,0.0,0.0,65,0.00,,,0.00,pywws,2013-03-25 09:56:00,
2013-03-25 06:02:00,32.9,22.4,29.65,North,0,0.0,0.0,65,0.00,,,0.00,pywws,2013-03-25 10:02:00,
2013-03-25 06:07:00,32.9,22.4,29.64,North,0,0.0,0.0,65,0.00,,,0.00,pywws,2013-03-25 10:07:00,
2013-03-25 06:13:00,32.9,22.8,29.64,North,0,0.0,0.0,66,0.00,,,0.00,pywws,2013-03-25 10:13:00,
2013-03-25 06:19:00,32.9,22.8,29.64,North,0,0.0,0.0,66,0.00,,,0.00,pywws,2013-03-25 10:19:00,
2013-03-25 06:25:00,32.9,22.8,29.64,NE,45,0.0,0.0,66,0.00,,,0.00,pywws,2013-03-25 10:25:00,
2013-03-25 06:30:00,32.9,22.8,29.64,NW,315,0.0,0.0,66,0.00,,,0.00,pywws,2013-03-25 10:30:00,
2013-03-25 06:36:00,33.1,23.0,29.64,NW,315,0.0,0.0,66,0.00,,,0.00,pywws,2013-03-25 10:36:00,
2013-03-25 06:42:00,33.1,22.6,29.64,East,90,0.0,0.0,65,0.00,,,0.00,pywws,2013-03-25 10:42:00,
2013-03-25 06:47:00,33.1,22.6,29.64,North,0,0.0,0.0,65,0.00,,,0.00,pywws,2013-03-25 10:47:00,
2013-03-25 06:53:00,33.1,22.6,29.64,NE,45,0.0,0.0,65,0.00,,,0.00,pywws,2013-03-25 10:53:00,
2013-03-25 06:58:00,33.1,22.6,29.63,NE,45,0.0,0.7,65,0.00,,,0.00,pywws,2013-03-25 10:58:00,
2013-03-25 07:04:00,33.1,22.6,29.63,North,0,0.0,0.0,65,0.00,,,0.00,pywws,2013-03-25 11:04:00,
2013-03-25 07:10:00,33.3,22.4,29.63,West,270,0.0,1.6,64,0.00,,,0.00,pywws,2013-03-25 11:10:00,
2013-03-25 07:15:00,33.3,22.4,29.63,NE,45,0.0,0.0,64,0.00,,,0.00,pywws,2013-03-25 11:15:00,
2013-03-25 07:21:00,33.4,22.6,29.63,NW,315,0.0,0.7,64,0.00,,,0.00,pywws,2013-03-25 11:21:00,
2013-03-25 07:26:00,33.4,22.6,29.63,NE,45,0.0,1.6,64,0.00,,,0.00,pywws,2013-03-25 11:26:00,
2013-03-25 07:32:00,33.8,22.2,29.62,NE,45,0.0,0.7,62,0.00,,,0.00,pywws,2013-03-25 11:32:00,
2013-03-25 07:38:00,34.0,22.4,29.62,NW,315,0.7,1.6,62,0.00,,,0.00,pywws,2013-03-25 11:38:00,
2013-03-25 07:43:00,34.2,22.1,29.62,North,0,0.0,0.7,61,0.00,,,0.00,pywws,2013-03-25 11:43:00,
2013-03-25 07:49:00,34.3,22.3,29.62,NW,315,0.0,0.7,61,0.00,,,0.00,pywws,2013-03-25 11:49:00,
2013-03-25 07:54:00,34.3,21.9,29.62,West,270,0.0,1.6,60,0.00,,,0.00,pywws,2013-03-25 11:54:00,
2013-03-25 08:00:00,34.3,21.5,29.62,NE,45,0.0,0.7,59,0.00,,,0.00,pywws,2013-03-25 12:00:00,
2013-03-25 08:06:00,34.5,21.7,29.62,NE,45,0.7,2.2,59,0.00,,,0.00,pywws,2013-03-25 12:06:00,
2013-03-25 08:11:00,34.7,21.5,29.62,East,90,0.0,0.7,58,0.00,,,0.00,pywws,2013-03-25 12:11:00,
2013-03-25 08:17:00,34.9,21.6,29.62,SW,225,0.7,1.6,58,0.00,,,0.00,pywws,2013-03-25 12:17:00,
2013-03-25 08:22:00,34.9,21.6,29.62,NE,45,0.7,1.6,58,0.00,,,0.00,pywws,2013-03-25 12:22:00,
2013-03-25 08:28:00,35.1,21.4,29.62,NE,45,0.0,0.7,57,0.00,,,0.00,pywws,2013-03-25 12:28:00,
2013-03-25 08:34:00,35.4,21.7,29.62,West,270,0.7,2.2,57,0.00,,,0.00,pywws,2013-03-25 12:34:00,
2013-03-25 08:39:00,35.6,21.0,29.62,NE,45,1.6,2.2,55,0.00,,,0.00,pywws,2013-03-25 12:39:00,
2013-03-25 08:45:00,36.0,21.4,29.63,NE,45,0.0,0.7,55,0.00,,,0.00,pywws,2013-03-25 12:45:00,
2013-03-25 08:50:00,36.3,21.7,29.63,North,0,1.6,2.2,55,0.00,,,0.00,pywws,2013-03-25 12:50:00,
2013-03-25 08:56:00,36.7,21.6,29.63,NW,315,0.7,1.6,54,0.00,,,0.00,pywws,2013-03-25 12:56:00,
2013-03-25 09:01:00,37.0,22.0,29.64,NE,45,0.7,1.6,54,0.00,,,0.00,pywws,2013-03-25 13:01:00,
2013-03-25 09:06:00,37.0,21.5,29.64,North,0,1.6,2.2,53,0.00,,,0.00,pywws,2013-03-25 13:06:00,
2013-03-25 09:12:00,37.4,23.6,29.64,North,0,0.7,1.6,57,0.00,,,0.00,pywws,2013-03-25 13:12:00,
2013-03-25 09:18:00,37.4,23.2,29.64,West,270,0.0,1.6,56,0.00,,,0.00,pywws,2013-03-25 13:18:00,
2013-03-25 09:23:00,37.9,23.2,29.65,NE,45,0.7,1.6,55,0.00,,,0.00,pywws,2013-03-25 13:23:00,
2013-03-25 09:29:00,37.9,23.2,29.65,North,0,0.7,1.6,55,0.00,,,0.00,pywws,2013-03-25 13:29:00,
2013-03-25 09:34:00,38.1,23.4,29.65,NE,45,1.6,3.1,55,0.00,,,0.00,pywws,2013-03-25 13:34:00,
2013-03-25 09:40:00,38.7,23.9,29.64,SW,225,0.0,0.7,55,0.00,,,0.00,pywws,2013-03-25 13:40:00,
2013-03-25 09:46:00,39.2,24.0,29.64,NE,45,0.0,1.6,54,0.00,,,0.00,pywws,2013-03-25 13:46:00,
2013-03-25 09:51:00,39.6,23.9,29.64,North,0,0.7,1.6,53,0.00,,,0.00,pywws,2013-03-25 13:51:00,
2013-03-25 09:57:00,40.1,24.4,29.64,North,0,1.6,3.1,53,0.00,,,0.00,pywws,2013-03-25 13:57:00,
2013-03-25 10:02:00,40.5,24.2,29.64,NE,45,0.7,3.8,52,0.00,,,0.00,pywws,2013-03-25 14:02:00,
2013-03-25 10:08:00,41.2,24.4,29.63,West,270,1.6,2.2,51,0.00,,,0.00,pywws,2013-03-25 14:08:00,
2013-03-25 10:14:00,41.7,24.5,29.63,NW,315,0.0,0.7,50,0.00,,,0.00,pywws,2013-03-25 14:14:00,
2013-03-25 10:19:00,42.3,25.0,29.62,NW,315,0.0,0.7,50,0.00,,,0.00,pywws,2013-03-25 14:19:00,
2013-03-25 10:25:00,42.4,24.2,29.62,NW,315,0.7,2.2,48,0.00,,,0.00,pywws,2013-03-25 14:25:00,
2013-03-25 10:30:00,42.3,24.0,29.62,NW,315,0.0,1.6,48,0.00,,,0.00,pywws,2013-03-25 14:30:00,
2013-03-25 10:36:00,42.3,24.0,29.62,NE,45,1.6,3.8,48,0.00,,,0.00,pywws,2013-03-25 14:36:00,
2013-03-25 10:42:00,42.1,23.8,29.62,South,180,1.6,3.1,48,0.00,,,0.00,pywws,2013-03-25 14:42:00,
2013-03-25 10:47:00,42.1,23.8,29.62,East,90,1.6,2.2,48,0.00,,,0.00,pywws,2013-03-25 14:47:00,
2013-03-25 10:53:00,42.1,23.3,29.62,NE,45,0.7,2.2,47,0.00,,,0.00,pywws,2013-03-25 14:53:00,
2013-03-25 10:58:00,42.1,23.3,29.61,NW,315,1.6,2.2,47,0.00,,,0.00,pywws,2013-03-25 14:58:00,
2013-03-25 11:04:00,42.3,24.0,29.61,West,270,0.7,2.2,48,0.00,,,0.00,pywws,2013-03-25 15:04:00,
2013-03-25 11:10:00,43.0,24.1,29.61,North,0,0.0,0.7,47,0.00,,,0.00,pywws,2013-03-25 15:10:00,
2013-03-25 11:15:00,43.2,23.3,29.61,NE,45,1.6,2.2,45,0.00,,,0.00,pywws,2013-03-25 15:15:00,
2013-03-25 11:21:00,43.3,22.9,29.60,NW,315,1.6,2.2,44,0.00,,,0.00,pywws,2013-03-25 15:21:00,
2013-03-25 11:26:00,43.2,22.2,29.60,North,0,0.7,2.2,43,0.00,,,0.00,pywws,2013-03-25 15:26:00,
2013-03-25 11:32:00,43.2,22.2,29.60,North,0,1.6,3.1,43,0.00,,,0.00,pywws,2013-03-25 15:32:00,
2013-03-25 11:38:00,43.3,22.4,29.60,NE,45,0.7,2.2,43,0.00,,,0.00,pywws,2013-03-25 15:38:00,
2013-03-25 11:43:00,43.7,22.7,29.59,West,270,0.7,2.2,43,0.00,,,0.00,pywws,2013-03-25 15:43:00,
2013-03-25 11:49:00,44.2,23.2,29.59,West,270,1.6,3.1,43,0.00,,,0.00,pywws,2013-03-25 15:49:00,
2013-03-25 11:54:00,44.6,22.9,29.59,East,90,1.6,3.1,42,0.00,,,0.00,pywws,2013-03-25 15:54:00,
2013-03-25 12:00:00,44.2,23.2,29.59,NE,45,1.6,2.2,43,0.00,,,0.00,pywws,2013-03-25 16:00:00,
2013-03-25 12:06:00,44.4,22.8,29.59,North,0,2.2,3.8,42,0.00,,,0.00,pywws,2013-03-25 16:06:00,
2013-03-25 12:11:00,44.4,22.8,29.59,North,0,0.7,1.6,42,0.00,,,0.00,pywws,2013-03-25 16:11:00,
2013-03-25 12:17:00,44.6,22.9,29.58,NW,315,1.6,3.1,42,0.00,,,0.00,pywws,2013-03-25 16:17:00,
2013-03-25 12:22:00,45.0,22.7,29.58,NE,45,1.6,3.1,41,0.00,,,0.00,pywws,2013-03-25 16:22:00,
2013-03-25 12:28:00,44.4,22.8,29.58,North,0,0.7,1.6,42,0.00,,,0.00,pywws,2013-03-25 16:28:00,
2013-03-25 12:34:00,44.2,23.7,29.58,NNE,22,1.6,4.5,44,0.00,,,0.00,pywws,2013-03-25 16:34:00,
2013-03-25 12:39:00,44.2,23.7,29.58,East,90,2.2,4.5,44,0.00,,,0.00,pywws,2013-03-25 16:39:00,
2013-03-25 12:45:00,43.9,23.9,29.57,West,270,0.7,2.2,45,0.00,,,0.00,pywws,2013-03-25 16:45:00,
2013-03-25 12:50:00,43.7,23.8,29.57,NE,45,0.7,2.2,45,0.00,,,0.00,pywws,2013-03-25 16:50:00,
2013-03-25 12:56:00,43.7,23.2,29.57,WSW,248,0.7,2.2,44,0.00,,,0.00,pywws,2013-03-25 16:56:00,
2013-03-25 13:02:00,43.7,23.2,29.56,West,270,0.7,1.6,44,0.00,,,0.00,pywws,2013-03-25 17:02:00,
2013-03-25 13:07:00,44.1,23.0,29.56,North,0,2.2,3.8,43,0.00,,,0.00,pywws,2013-03-25 17:07:00,
2013-03-25 13:12:00,43.9,22.8,29.56,NE,45,0.7,2.2,43,0.00,,,0.00,pywws,2013-03-25 17:12:00,
2013-03-25 13:18:00,43.7,22.7,29.55,West,270,0.7,2.2,43,0.00,,,0.00,pywws,2013-03-25 17:18:00,
2013-03-25 13:23:00,43.5,23.1,29.55,East,90,1.6,3.1,44,0.00,,,0.00,pywws,2013-03-25 17:23:00,
2013-03-25 13:29:00,43.9,23.4,29.54,West,270,1.6,2.2,44,0.00,,,0.00,pywws,2013-03-25 17:29:00,
2013-03-25 13:34:00,43.7,23.2,29.54,NE,45,0.7,2.2,44,0.00,,,0.00,pywws,2013-03-25 17:34:00,
2013-03-25 13:40:00,43.9,23.4,29.53,SW,225,1.6,3.1,44,0.00,,,0.00,pywws,2013-03-25 17:40:00,
2013-03-25 13:46:00,43.9,23.9,29.53,North,0,0.0,0.7,45,0.00,,,0.00,pywws,2013-03-25 17:46:00,
2013-03-25 13:51:00,44.6,24.1,29.52,North,0,0.7,2.2,44,0.00,,,0.00,pywws,2013-03-25 17:51:00,
2013-03-25 13:57:00,45.3,24.7,29.52,ENE,68,1.6,3.1,44,0.00,,,0.00,pywws,2013-03-25 17:57:00,
2013-03-25 14:02:00,45.7,25.0,29.51,NW,315,0.0,2.2,44,0.00,,,0.00,pywws,2013-03-25 18:02:00,
2013-03-25 14:08:00,46.0,24.8,29.51,North,0,0.7,1.6,43,0.00,,,0.00,pywws,2013-03-25 18:08:00,
2013-03-25 14:14:00,46.0,24.8,29.51,NNE,22,1.6,2.2,43,0.00,,,0.00,pywws,2013-03-25 18:14:00,
2013-03-25 14:19:00,45.5,23.8,29.50,NW,315,0.0,1.6,42,0.00,,,0.00,pywws,2013-03-25 18:19:00,
2013-03-25 14:25:00,45.3,24.2,29.49,North,0,0.0,0.7,43,0.00,,,0.00,pywws,2013-03-25 18:25:00,
2013-03-25 14:30:00,45.5,24.3,29.49,SW,225,0.7,2.2,43,0.00,,,0.00,pywws,2013-03-25 18:30:00,
2013-03-25 14:36:00,45.5,24.9,29.49,SE,135,0.7,2.2,44,0.00,,,0.00,pywws,2013-03-25 18:36:00,
2013-03-25 14:41:00,45.5,24.3,29.48,East,90,1.6,3.8,43,0.00,,,0.00,pywws,2013-03-25 18:41:00,
2013-03-25 14:46:00,45.1,24.0,29.48,SE,135,1.6,2.2,43,0.00,,,0.00,pywws,2013-03-25 18:46:00,
2013-03-25 14:52:00,44.6,22.9,29.48,North,0,0.7,1.6,42,0.00,,,0.00,pywws,2013-03-25 18:52:00,
2013-03-25 14:58:00,44.6,23.5,29.48,West,270,1.6,2.2,43,0.00,,,0.00,pywws,2013-03-25 18:58:00,
2013-03-25 15:03:00,44.6,22.9,29.48,NW,315,0.0,0.7,42,0.00,,,0.00,pywws,2013-03-25 19:03:00,
2013-03-25 15:09:00,44.4,23.3,29.48,NE,45,3.1,6.0,43,0.00,,,0.00,pywws,2013-03-25 19:09:00,
2013-03-25 15:14:00,43.9,22.8,29.48,South,180,0.7,2.2,43,0.00,,,0.00,pywws,2013-03-25 19:14:00,
2013-03-25 15:20:00,43.7,22.7,29.48,NW,315,0.0,1.6,43,0.00,,,0.00,pywws,2013-03-25 19:20:00,
2013-03-25 15:26:00,43.9,23.4,29.47,NW,315,0.0,1.6,44,0.00,,,0.00,pywws,2013-03-25 19:26:00,
2013-03-25 15:31:00,44.2,23.2,29.48,East,90,0.7,2.2,43,0.00,,,0.00,pywws,2013-03-25 19:31:00,
2013-03-25 15:37:00,44.8,23.1,29.48,NE,45,0.7,3.1,42,0.00,,,0.00,pywws,2013-03-25 19:37:00,
2013-03-25 15:42:00,44.6,22.9,29.48,SW,225,2.2,3.8,42,0.00,,,0.00,pywws,2013-03-25 19:42:00,
2013-03-25 15:48:00,44.1,24.1,29.48,SW,225,1.6,3.8,45,0.00,,,0.00,pywws,2013-03-25 19:48:00,
2013-03-25 15:54:00,43.9,23.9,29.48,WNW,292,1.6,4.5,45,0.00,,,0.00,pywws,2013-03-25 19:54:00,
2013-03-25 15:59:00,43.9,24.5,29.48,North,0,0.7,2.2,46,0.00,,,0.00,pywws,2013-03-25 19:59:00,
2013-03-25 16:05:00,43.7,24.3,29.48,SW,225,1.6,2.2,46,0.00,,,0.00,pywws,2013-03-25 20:05:00,
2013-03-25 16:10:00,43.5,23.6,29.47,West,270,0.7,1.6,45,0.00,,,0.00,pywws,2013-03-25 20:10:00,
2013-03-25 16:16:00,43.3,23.4,29.48,North,0,0.0,0.0,45,0.00,,,0.00,pywws,2013-03-25 20:16:00,
2013-03-25 16:22:00,43.3,23.4,29.48,North,0,0.7,2.2,45,0.00,,,0.00,pywws,2013-03-25 20:22:00,
2013-03-25 16:27:00,43.2,22.7,29.48,NE,45,3.1,3.8,44,0.00,,,0.00,pywws,2013-03-25 20:27:00,
2013-03-25 16:33:00,43.2,23.8,29.48,NW,315,0.7,1.6,46,0.00,,,0.00,pywws,2013-03-25 20:33:00,
2013-03-25 16:38:00,43.3,24.0,29.48,NE,45,0.0,1.6,46,0.00,,,0.00,pywws,2013-03-25 20:38:00,
2013-03-25 16:44:00,43.3,23.4,29.48,North,0,1.6,2.2,45,0.00,,,0.00,pywws,2013-03-25 20:44:00,
2013-03-25 16:50:00,43.0,23.1,29.48,NW,315,0.7,2.2,45,0.00,,,0.00,pywws,2013-03-25 20:50:00,
2013-03-25 16:55:00,43.0,23.6,29.48,NE,45,1.6,2.2,46,0.00,,,0.00,pywws,2013-03-25 20:55:00,
2013-03-25 17:01:00,43.0,23.6,29.48,North,0,0.0,0.7,46,0.00,,,0.00,pywws,2013-03-25 21:01:00,
2013-03-25 17:06:00,43.0,23.6,29.49,North,0,0.7,1.6,46,0.00,,,0.00,pywws,2013-03-25 21:06:00,
2013-03-25 17:12:00,43.0,24.1,29.49,NW,315,0.7,2.2,47,0.00,,,0.00,pywws,2013-03-25 21:12:00,
2013-03-25 17:18:00,42.8,24.5,29.49,North,0,0.0,0.7,48,0.00,,,0.00,pywws,2013-03-25 21:18:00,
2013-03-25 17:23:00,42.4,24.6,29.49,NE,45,3.1,6.9,49,0.00,,,0.00,pywws,2013-03-25 21:23:00,
2013-03-25 17:29:00,41.9,24.6,29.49,West,270,0.7,1.6,50,0.00,,,0.00,pywws,2013-03-25 21:29:00,
2013-03-25 17:34:00,41.7,24.9,29.49,North,0,1.6,3.1,51,0.00,,,0.00,pywws,2013-03-25 21:34:00,
2013-03-25 17:40:00,41.4,25.5,29.49,North,0,2.2,3.8,53,0.00,,,0.00,pywws,2013-03-25 21:40:00,
2013-03-25 17:46:00,41.2,24.9,29.49,NNE,22,1.6,2.2,52,0.00,,,0.00,pywws,2013-03-25 21:46:00,
2013-03-25 17:51:00,41.0,24.7,29.49,NW,315,0.7,2.2,52,0.00,,,0.00,pywws,2013-03-25 21:51:00,
2013-03-25 17:57:00,41.0,25.2,29.49,North,0,3.1,5.4,53,0.00,,,0.00,pywws,2013-03-25 21:57:00,
2013-03-25 18:02:00,41.0,25.2,29.49,NE,45,0.7,2.2,53,0.00,,,0.00,pywws,2013-03-25 22:02:00,
2013-03-25 18:08:00,41.0,25.2,29.50,East,90,0.0,0.7,53,0.00,,,0.00,pywws,2013-03-25 22:08:00,
2013-03-25 18:14:00,41.0,25.2,29.50,North,0,1.6,2.2,53,0.00,,,0.00,pywws,2013-03-25 22:14:00,
2013-03-25 18:19:00,40.8,25.5,29.50,NE,45,0.0,0.7,54,0.00,,,0.00,pywws,2013-03-25 22:19:00,
2013-03-25 18:25:00,40.6,25.3,29.50,NE,45,1.6,3.8,54,0.00,,,0.00,pywws,2013-03-25 22:25:00,
2013-03-25 18:30:00,40.6,25.3,29.51,NE,45,0.7,2.2,54,0.00,,,0.00,pywws,2013-03-25 22:30:00,
2013-03-25 18:36:00,40.5,25.1,29.51,West,270,0.7,1.6,54,0.00,,,0.00,pywws,2013-03-25 22:36:00,
2013-03-25 18:42:00,40.3,25.0,29.51,NE,45,0.7,1.6,54,0.00,,,0.00,pywws,2013-03-25 22:42:00,
2013-03-25 18:47:00,40.3,25.0,29.51,NW,315,0.7,1.6,54,0.00,,,0.00,pywws,2013-03-25 22:47:00,
2013-03-25 18:53:00,40.1,24.8,29.51,NE,45,0.0,0.7,54,0.00,,,0.00,pywws,2013-03-25 22:53:00,
2013-03-25 18:58:00,39.9,24.6,29.51,North,0,0.7,1.6,54,0.00,,,0.00,pywws,2013-03-25 22:58:00,
2013-03-25 19:04:00,39.9,24.6,29.52,North,0,1.6,2.2,54,0.00,,,0.00,pywws,2013-03-25 23:04:00,
2013-03-25 19:10:00,39.9,24.6,29.52,East,90,1.6,2.2,54,0.00,,,0.00,pywws,2013-03-25 23:10:00,
2013-03-25 19:15:00,39.9,24.6,29.52,South,180,2.2,3.8,54,0.00,,,0.00,pywws,2013-03-25 23:15:00,
2013-03-25 19:21:00,39.9,24.2,29.53,North,0,0.0,1.6,53,0.00,,,0.00,pywws,2013-03-25 23:21:00,
2013-03-25 19:26:00,39.7,24.5,29.53,NW,315,3.1,5.4,54,0.00,,,0.00,pywws,2013-03-25 23:26:00,
2013-03-25 19:32:00,39.7,24.0,29.53,NE,45,0.0,0.7,53,0.00,,,0.00,pywws,2013-03-25 23:32:00,
2013-03-25 19:38:00,39.6,24.3,29.54,West,270,0.7,1.6,54,0.00,,,0.00,pywws,2013-03-25 23:38:00,
2013-03-25 19:43:00,39.6,24.3,29.54,NE,45,1.6,2.2,54,0.00,,,0.00,pywws,2013-03-25 23:43:00,
2013-03-25 19:49:00,39.7,23.6,29.54,WSW,248,0.7,1.6,52,0.00,,,0.00,pywws,2013-03-25 23:49:00,
2013-03-25 19:54:00,39.6,24.3,29.54,North,0,0.0,0.7,54,0.00,,,0.00,pywws,2013-03-25 23:54:00,
2013-03-25 20:00:00,39.6,23.4,29.54,NE,45,0.7,1.6,52,0.00,,,0.00,pywws,2013-03-26 00:00:00,
2013-03-25 20:06:00,39.6,23.4,29.55,NE,45,0.7,1.6,52,0.00,,,0.00,pywws,2013-03-26 00:06:00,
2013-03-25 20:11:00,39.6,23.4,29.55,North,0,1.6,2.2,52,0.00,,,0.00,pywws,2013-03-26 00:11:00,
2013-03-25 20:17:00,39.6,23.4,29.55,NE,45,0.7,1.6,52,0.00,,,0.00,pywws,2013-03-26 00:17:00,
2013-03-25 20:22:00,39.4,24.1,29.55,East,90,0.0,0.0,54,0.00,,,0.00,pywws,2013-03-26 00:22:00,
2013-03-25 20:27:00,39.2,24.0,29.55,North,0,0.0,1.6,54,0.00,,,0.00,pywws,2013-03-26 00:27:00,
2013-03-25 20:33:00,39.2,23.5,29.56,North,0,0.7,2.2,53,0.00,,,0.00,pywws,2013-03-26 00:33:00,
2013-03-25 20:38:00,39.0,23.8,29.56,East,90,0.0,0.7,54,0.00,,,0.00,pywws,2013-03-26 00:38:00,
2013-03-25 20:44:00,39.0,23.8,29.57,West,270,0.7,2.2,54,0.00,,,0.00,pywws,2013-03-26 00:44:00,
2013-03-25 20:50:00,38.8,23.6,29.57,NW,315,0.0,0.0,54,0.00,,,0.00,pywws,2013-03-26 00:50:00,
2013-03-25 20:55:00,38.7,23.5,29.57,East,90,0.0,1.6,54,0.00,,,0.00,pywws,2013-03-26 00:55:00,
2013-03-25 21:01:00,38.8,23.6,29.58,North,0,0.0,0.7,54,0.00,,,0.00,pywws,2013-03-26 01:01:00,
2013-03-25 21:06:00,38.8,24.1,29.57,North,0,0.0,0.0,55,0.00,,,0.00,pywws,2013-03-26 01:06:00,
2013-03-25 21:11:00,38.7,23.5,29.57,NE,45,0.0,0.0,54,0.00,,,0.00,pywws,2013-03-26 01:11:00,
2013-03-25 21:17:00,38.5,23.3,29.57,NE,45,0.7,2.2,54,0.00,,,0.00,pywws,2013-03-26 01:17:00,
2013-03-25 21:22:00,38.7,23.0,29.57,North,0,0.0,0.0,53,0.00,,,0.00,pywws,2013-03-26 01:22:00,
2013-03-25 21:28:00,38.5,23.3,29.58,North,0,0.7,1.6,54,0.00,,,0.00,pywws,2013-03-26 01:28:00,
2013-03-25 21:34:00,38.5,22.9,29.58,East,90,0.7,1.6,53,0.00,,,0.00,pywws,2013-03-26 01:34:00,
2013-03-25 21:39:00,38.7,22.6,29.59,NW,315,0.0,1.6,52,0.00,,,0.00,pywws,2013-03-26 01:39:00,
2013-03-25 21:45:00,38.7,23.0,29.59,North,0,2.2,5.4,53,0.00,,,0.00,pywws,2013-03-26 01:45:00,
2013-03-25 21:50:00,38.8,22.7,29.59,SW,225,0.7,1.6,52,0.00,,,0.00,pywws,2013-03-26 01:50:00,
2013-03-25 21:56:00,38.7,23.0,29.59,North,0,2.2,3.1,53,0.00,,,0.00,pywws,2013-03-26 01:56:00,
2013-03-25 22:01:00,38.5,22.9,29.59,NE,45,1.6,2.2,53,0.00,,,0.00,pywws,2013-03-26 02:01:00,
2013-03-25 22:06:00,38.5,22.9,29.59,North,0,0.7,1.6,53,0.00,,,0.00,pywws,2013-03-26 02:06:00,
2013-03-25 22:12:00,38.7,22.6,29.59,North,0,1.6,2.2,52,0.00,,,0.00,pywws,2013-03-26 02:12:00,
2013-03-25 22:18:00,38.5,22.4,29.59,North,0,0.0,0.0,52,0.00,,,0.00,pywws,2013-03-26 02:18:00,
2013-03-25 22:23:00,38.3,22.7,29.59,North,0,0.7,1.6,53,0.00,,,0.00,pywws,2013-03-26 02:23:00,
2013-03-25 22:29:00,37.9,22.4,29.59,NE,45,0.0,0.0,53,0.00,,,0.00,pywws,2013-03-26 02:29:00,
2013-03-25 22:34:00,37.4,21.9,29.59,West,270,0.0,1.6,53,0.00,,,0.00,pywws,2013-03-26 02:34:00,
2013-03-25 22:40:00,37.6,22.0,29.59,North,0,0.7,1.6,53,0.00,,,0.00,pywws,2013-03-26 02:40:00,
2013-03-25 22:46:00,37.4,22.3,29.59,North,0,1.6,2.2,54,0.00,,,0.00,pywws,2013-03-26 02:46:00,
2013-03-25 22:51:00,37.0,20.6,29.59,NE,45,0.7,2.2,51,0.00,,,0.00,pywws,2013-03-26 02:51:00,
2013-03-25 22:57:00,36.9,20.4,29.59,NE,45,0.7,1.6,51,0.00,,,0.00,pywws,2013-03-26 02:57:00,
2013-03-25 23:02:00,36.9,20.4,29.59,SE,135,0.7,2.2,51,0.00,,,0.00,pywws,2013-03-26 03:02:00,
2013-03-25 23:08:00,37.2,20.8,29.60,North,0,0.0,0.7,51,0.00,,,0.00,pywws,2013-03-26 03:08:00,
2013-03-25 23:14:00,37.2,20.8,29.59,East,90,0.7,1.6,51,0.00,,,0.00,pywws,2013-03-26 03:14:00,
2013-03-25 23:19:00,37.2,20.8,29.59,NE,45,1.6,2.2,51,0.00,,,0.00,pywws,2013-03-26 03:19:00,
2013-03-25 23:25:00,37.2,20.8,29.60,NW,315,0.7,1.6,51,0.00,,,0.00,pywws,2013-03-26 03:25:00,
2013-03-25 23:30:00,37.2,20.8,29.60,North,0,0.7,1.6,51,0.00,,,0.00,pywws,2013-03-26 03:30:00,
2013-03-25 23:36:00,37.2,20.8,29.59,NW,315,0.0,0.0,51,0.00,,,0.00,pywws,2013-03-26 03:36:00,
2013-03-25 23:41:00,37.0,20.6,29.60,NE,45,0.0,1.6,51,0.00,,,0.00,pywws,2013-03-26 03:41:00,
2013-03-25 23:46:00,36.9,20.4,29.60,NE,45,0.7,1.6,51,0.00,,,0.00,pywws,2013-03-26 03:46:00,
2013-03-25 23:52:00,36.9,20.4,29.60,NE,45,0.7,1.6,51,0.00,,,0.00,pywws,2013-03-26 03:52:00,
2013-03-25 23:57:00,36.9,20.4,29.60,NE,45,0.0,0.0,51,0.00,,,0.00,pywws,2013-03-26 03:57:00,